This is the latest recevied weather packets stored in our database for station/object KO6MEX-13. If no packets are shown the sender has not sent any weather packets the latest 10 day(s).
| Time | Temp. | Humidity | Pressure | Rain* | Wind** | Luminosity | Snow |
|---|---|---|---|---|---|---|---|
| 1777827944 | 15.56° C | 64% | 1018 hPa | 0 mm | - | 245 W/m² | - |
| 1777827641 | 15.56° C | 68% | 1018.1 hPa | 0 mm | - | 268 W/m² | - |
| 1777827339 | 15.56° C | 68% | 1018 hPa | 0 mm | - | 270 W/m² | - |
| 1777827035 | 15.56° C | 69% | 1017.7 hPa | 0 mm | - | 250 W/m² | - |
| 1777826732 | 15° C | 68% | 1018 hPa | 0 mm | - | 225 W/m² | - |
| 1777826428 | 15° C | 69% | 1017.9 hPa | 0 mm | - | 219 W/m² | - |
| 1777826126 | 15° C | 69% | 1017.6 hPa | 0 mm | - | 210 W/m² | - |
| 1777825823 | 15° C | 69% | 1017.9 hPa | 0 mm | - | 198 W/m² | - |
| 1777825520 | 15° C | 70% | 1017.8 hPa | 0 mm | - | 177 W/m² | - |
| 1777825218 | 15° C | 70% | 1017.8 hPa | 0 mm | - | 170 W/m² | - |
| 1777824914 | 15° C | 72% | 1017.7 hPa | 0 mm | - | 178 W/m² | - |
| 1777824610 | 14.44° C | 74% | 1017.5 hPa | 0 mm | - | 180 W/m² | - |
| 1777824308 | 14.44° C | 74% | 1017.8 hPa | 0 mm | - | 194 W/m² | - |
| 1777824003 | 14.44° C | 73% | 1017.5 hPa | 0 mm | - | 200 W/m² | - |
| 1777823700 | 14.44° C | 72% | 1017.8 hPa | 0 mm | - | 170 W/m² | - |
| 1777823396 | 14.44° C | 72% | 1017.8 hPa | 0 mm | - | 153 W/m² | - |
| 1777823095 | 14.44° C | 73% | 1017.7 hPa | 0 mm | - | 157 W/m² | - |
| 1777822792 | 14.44° C | 73% | 1017.5 hPa | 0 mm | - | 144 W/m² | - |
| 1777822490 | 14.44° C | 73% | 1017.5 hPa | 0 mm | - | 147 W/m² | - |
| 1777822187 | 14.44° C | 72% | 1017.5 hPa | 0 mm | - | 169 W/m² | - |
| 1777821884 | 14.44° C | 73% | 1017.5 hPa | 0 mm | - | 163 W/m² | - |
| 1777821582 | 14.44° C | 73% | 1017.7 hPa | 0 mm | - | 156 W/m² | - |
| 1777821279 | 14.44° C | 74% | 1017.4 hPa | 0 mm | - | 175 W/m² | - |
| 1777820977 | 13.89° C | 76% | 1017.3 hPa | 0 mm | - | 218 W/m² | - |
| 1777820673 | 13.89° C | 78% | 1017.2 hPa | 0 mm | - | 152 W/m² | - |
* Rain latest hour (hover to see other rain measurements)
** Current wind speed in m/s (hover to see current wind gust speed)